User: anonymous   Login
Location: Unspecified
(0.0000°N, 0.0000°E)
Time: 09:07:19
(UTC+02:00)
Language:

Ariane H10 - Orbit

View from above orbital plane
View from above orbital plane
View from above satellite
View from above satellite

Ground track
Ground track

The orbit data is extracted from the following two-line orbital elements,

1 21727U 91067B   18143.11794169 -.00000044  00000-0  26427-3 0  9990
2 21727   3.8303 194.0041 7193613  65.3599 350.9883  2.31987384185841
Epoch (UTC): 23 May 2018 02:49:50
Eccentricity: 0.7193613
inclination: 3.8303°
perigee height: 386 km
apogee height: 35065 km
right ascension of ascending node: 194.0041°
argument of perigee: 65.3599°
revolutions per day: 2.31987384
mean anomaly at epoch: 350.9883°
orbit number at epoch: 18584

The dashed part of the orbit path shows where the satellite is in the earth's shadow,  

DLR